MDT,Max TemperatureF,Mean TemperatureF,Min TemperatureF,Max Dew PointF,MeanDew PointF,Min DewpointF,Max Humidity, Mean Humidity, Min Humidity, Max Sea Level PressureIn, Mean Sea Level PressureIn, Min Sea Level PressureIn, Max VisibilityMiles, Mean VisibilityMiles, Min VisibilityMiles, Max Wind SpeedMPH, Mean Wind SpeedMPH, Max Gust SpeedMPH,PrecipitationIn, CloudCover, Events, WindDirDegrees
2012-10-1,77,56,34,36,32,28,82,50,18,30.29,30.06,29.70,10,10,10,36,17,43,0.00,0,,226
2012-10-2,66,49,32,43,36,32,100,67,34,30.14,29.91,29.68,10,8,1,45,13,55,0.43,5,Rain-Snow,351
2012-10-3,39,32,25,34,31,23,96,80,64,30.59,30.40,30.12,10,8,2,26,16,31,0.03,7,Snow,342
2012-10-4,41,30,18,28,22,16,92,70,48,30.56,30.50,30.38,10,10,10,10,5,12,0.00,3,,312
2012-10-5,43,30,17,28,21,15,92,68,44,30.53,30.49,30.39,10,10,10,17,6,20,0.00,2,,289
2012-10-6,54,39,23,38,30,19,89,74,59,30.43,30.30,30.19,10,10,10,28,11,35,T,4,,293
2012-10-7,65,50,35,32,29,26,82,55,27,30.17,30.00,29.90,10,10,10,25,13,30,0.00,1,,276
2012-10-8,48,42,35,43,38,33,100,78,56,30.14,30.01,29.91,10,9,3,18,9,23,0.06,8,Rain,342
2012-10-9,58,45,31,34,31,29,92,64,36,30.17,30.09,29.98,10,10,10,13,4,14,0.00,2,,258
2012-10-10,49,39,29,38,34,27,100,78,56,30.29,30.05,29.85,10,9,2,26,15,36,T,5,Snow,347
2012-10-11,38,33,28,34,29,26,100,91,82,30.31,30.17,29.88,10,8,2,22,11,25,0.00,7,,119
2012-10-12,65,45,24,35,28,21,100,60,19,29.94,29.78,29.65,10,6,0,33,12,39,0.00,1,Fog,217
2012-10-13,63,55,47,40,36,32,66,51,36,30.04,29.89,29.78,10,10,10,35,19,43,0.00,0,,256
2012-10-14,64,56,47,42,39,36,66,53,39,30.07,29.92,29.73,10,10,10,37,22,48,0.00,0,,241
2012-10-15,65,58,50,41,38,35,59,48,37,29.77,29.70,29.56,10,10,10,40,22,47,0.00,0,,245
2012-10-16,59,48,37,45,35,22,71,57,43,29.75,29.45,29.24,10,10,9,48,24,58,0.03,2,Rain,252
2012-10-17,50,37,24,27,20,17,64,47,29,30.22,30.00,29.78,10,10,10,33,18,41,0.00,2,,280
2012-10-18,59,41,22,32,24,18,75,51,26,30.26,30.10,29.86,10,10,10,29,13,33,0.00,0,,246
2012-10-19,62,53,43,39,35,30,65,51,36,29.82,29.61,29.46,10,10,10,45,25,54,0.00,0,,233
2012-10-20,51,38,25,38,26,12,76,50,23,29.80,29.57,29.44,10,10,10,44,23,52,T,0,,265
2012-10-21,45,32,19,23,19,14,84,57,30,29.97,29.91,29.82,10,10,5,18,6,26,0.00,2,,269
2012-10-22,27,21,15,25,21,14,96,89,81,30.02,29.85,29.69,10,4,0,28,16,32,0.09,6,Fog-Snow,344
2012-10-23,23,15,6,21,16,4,96,87,77,30.17,29.88,29.66,10,7,1,31,19,38,0.01,6,Snow,325
2012-10-24,23,15,7,16,13,5,92,83,73,30.40,30.24,30.09,10,10,10,13,7,15,T,6,,329
2012-10-25,23,13,2,18,15,1,92,80,68,30.58,30.41,30.27,10,7,1,10,5,12,T,7,Snow,330
2012-10-26,24,13,1,19,10,-2,95,85,74,30.55,30.34,30.13,10,9,2,10,3,12,0.00,4,Snow,55
2012-10-27,27,23,18,27,20,16,100,94,88,30.23,30.06,29.89,10,6,0,13,7,15,T,8,Fog-Snow,130
2012-10-28,49,38,27,38,30,27,100,85,70,30.00,29.83,29.73,10,5,0,24,10,30,T,4,Fog-Snow,180
2012-10-29,59,47,35,42,35,31,89,70,51,29.93,29.85,29.76,10,10,10,39,14,47,0.00,2,,214
2012-10-30,61,44,26,38,32,26,100,68,36,30.02,29.91,29.82,10,8,0,39,20,47,0.00,3,Fog,283
2012-10-31,35,30,24,34,27,21,100,86,72,30.18,30.02,29.85,10,6,0,17,9,20,0.00,8,Fog,124